Regional Weather Roundup
Issued by NWS

Home | Current Version | Previous Version | Graphics & Text | Print | Product List | Glossary On
Versions: 1 2 3 4 5 6 7 8 9 10 11 12 13 14 15 16 17 18 19 20 21 22 23 24 25 26 27 28 29 30 31 32 33 34 35 36 37 38 39 40 41 42 43 44 45 46 47 48 49 50
000
ASUS43 KDMX 031807
RWRIA

WEATHER ROUNDUP FOR IOWA
NATIONAL WEATHER SERVICE DES MOINES IA
1200 PM CST TUE MAR 03 2015

NOTE: "FAIR" INDICATES FEW OR NO CLOUDS BELOW 12,000 FEET WITH NO
SIGNIFICANT WEATHER AND/OR OBSTRUCTIONS TO VISIBILITY.

* - THESE STATIONS ARE NOT NWS STATIONS...THUS NOT UNDER NWS
QUALITY CONTROL.  THEY ALSO DO NOT REPORT WEATHER SUCH
AS PRECIPITATION OR FOG.

IAZ001>003-012>014-020>022-031>034-043>046-031900-
   NORTHWEST IOWA

CITY           SKY/WX    TMP DP  RH WIND       PRES   REMARKS
CARROLL *      CLOUDY    32  27  80 NW23G30   29.76R WCI  19
CHEROKEE *     CLOUDY    32  25  76 NW16G28   29.79R WCI  21
DENISON *      CLOUDY    32  30  93 NW17G24   29.77R WCI  21
LE MARS *      CLOUDY    30  21  69 N26G35    29.83R WCI  16
ORANGE CITY *  CLOUDY    27  18  69 N20G32    29.82R WCI  13
SHELDON *      CLOUDY    27  19  74 N32G43    29.80R WCI  10
SIOUX CITY     FLURRIES  30  21  69 NW28G43   29.83R WCI  15
6HR MIN TEMP:  29; 6HR MAX TEMP:  34; 6HR PCP: TRACE;

SPENCER        MIX PCPN  28  21  75 NW32G39   29.77R WCI  12
6HR MIN TEMP:  26; 6HR MAX TEMP:  34; 6HR PCP: TRACE;

STORM LAKE *   PTSUNNY   32  27  80 NW25G31   29.76R WCI  19
$$

IAZ055>058-069>071-079>083-090>094-031900-
   SOUTHWEST IOWA

CITY           SKY/WX    TMP DP  RH WIND       PRES   REMARKS
ATLANTIC *     CLOUDY    34  30  86 NW17G29   29.79R WCI  23
AUDUBON *      SUNNY     32  27  80 NW16G25   29.78R WCI  21
CLARINDA *     CLOUDY    36  32  87 NW17G24   29.83R WCI  25
COUNCIL BLFS * CLOUDY    34  32  93 NW15G26   29.79R WCI  24
CRESTON *      CLOUDY    34  32  93 NW21G30   29.76R WCI  22
HARLAN  *      CLOUDY    32  32 100 NW18G26   29.82R WCI  20
LAMONI         CLOUDY    36  33  89 NW20      29.75R WCI  25
6HR MIN TEMP:  31; 6HR MAX TEMP:  36; 6HR PCP:  0.02;

RED OAK *      CLOUDY    36  30  80 N17G25    29.81R WCI  25
SHENANDOAH *   CLOUDY    37  30  75 NW18G24   29.84R WCI  27
$$

IAZ047>049-059>061-072>074-084-031900-
   CENTRAL IOWA

CITY           SKY/WX    TMP DP  RH WIND       PRES   REMARKS
AMES           CLOUDY    32  28  85 NW18G24   29.74R WCI  20
6HR MIN TEMP:  27; 6HR MAX TEMP:  32;

ANKENY *       CLOUDY    34  32  93 NW15G23   29.73R WCI  24
CHARITON *     CLOUDY    36  36 100 W12       29.73R FOG     WCI  27
DES MOINES     CLOUDY    35  30  82 NW20      29.73R WCI  24
6HR MIN TEMP:  31; 6HR MAX TEMP:  36; 6HR PCP:  0.01;

GRINNELL*      CLOUDY    34  32  93 W12       29.71R WCI  25
KNOXVILLE *    CLOUDY    34  32  93 W16       29.71R WCI  23
MARSHALLTOWN   CLOUDY    32  29  88 NW22      29.69R WCI  19
6HR MIN TEMP:  27; 6HR MAX TEMP:  32;

PELLA *        CLOUDY    33  33 100 W10       29.74R FOG     WCI  25
PERRY *          N/A     32  30  93 NW13      29.75R WCI  22
$$

IAZ004>006-015-016-023>025-035-036-031900-
   NORTH CENTRAL IOWA

CITY           SKY/WX    TMP DP  RH WIND       PRES   REMARKS
ALGONA *       CLOUDY    32  28  86 NW20G30   29.73R WCI  20
CLARION *      MIX PCPN  30  30 100 NW17G23   29.71R WCI  18
ESTHERVILLE    CLOUDY    24  20  84 NW29G36   29.75R FOG     WCI   7
6HR MIN TEMP:  23; 6HR MAX TEMP:  30; 6HR PCP: TRACE;

FORT DODGE *   CLOUDY    32  27  80 NW9G22    29.74R WCI  24
MASON CITY     CLOUDY    30  25  81 NW20      29.70S WCI  17
6HR MIN TEMP:  24; 6HR MAX TEMP:  30; 6HR PCP: TRACE;

FOREST CITY *  CLOUDY    32  25  74 NW20G25   29.70R WCI  20
IOWA FALLS *   CLOUDY    32  28  86 NW18      29.71S WCI  20
$$

IAZ007>011-017>019-026>030-037>042-050>054-066-031900-
   NORTHEAST IOWA

CITY           SKY/WX    TMP DP  RH WIND       PRES   REMARKS
CEDAR RAPIDS   CLOUDY    32  31  96 SW14      29.67R FOG     WCI  22
6HR MIN TEMP:  29; 6HR MAX TEMP:  32; 6HR PCP:  0.01;

CHARLES CITY * CLOUDY    30  30 100 W13G20    29.67F WCI  20
CLINTON *      CLOUDY    32  28  86 CALM      29.69R
DECORAH *      CLOUDY    28  27  93 VRB6G15   29.65R FOG     WCI  22
DUBUQUE          N/A    N/A N/A N/A MISG      29.65R
                                      6HR PCP:  0.10;

MONTICELLO *   CLOUDY    32  32 100 W15       29.66F FOG     WCI  22
OELWEIN *      CLOUDY    30  30 100 W14G24    29.67R FOG     WCI  20
WATERLOO       CLOUDY    31  29  92 W12       29.69S WCI  22
6HR MIN TEMP:  25; 6HR MAX TEMP:  31; 6HR PCP:  0.04;

$$

IAZ064-065-067-068-078-031900-
   EAST CENTRAL IOWA

CITY           SKY/WX    TMP DP  RH WIND       PRES   REMARKS
DAVENPORT      CLOUDY    32  29  88 SW15      29.70R FOG     WCI  22
6HR MIN TEMP:  29; 6HR MAX TEMP:  32; 6HR PCP:  0.05;

IOWA CITY      CLOUDY    33  31  92 SW9       29.71S FOG     WCI  25
6HR MIN TEMP:  30; 6HR MAX TEMP:  33; 6HR PCP:  0.03;

MT. PLEASANT * CLOUDY    34  34 100 SW12      29.72R FOG     WCI  25
MUSCATINE *    CLOUDY    34  32  93 SW14G20   29.72R FOG     WCI  24
QUAD CITIES    CLOUDY    33  30  88 SW14      29.70R FOG     WCI  23
6HR MIN TEMP:  28; 6HR MAX TEMP:  33; 6HR PCP:  0.05;

$$

IAZ062-063-075>077-085>089-095>099-031900-
   SOUTHEAST IOWA

CITY           SKY/WX    TMP DP  RH WIND       PRES   REMARKS
BURLINGTON     CLOUDY    34  33  96 SW13      29.72R FOG     WCI  25
6HR MIN TEMP:  28; 6HR MAX TEMP:  34; 6HR PCP:  0.01;

FAIRFIELD *    CLOUDY    34  32  93 W8        29.71S FOG     WCI  27
FORT MADISON * FOG       34  34 100 SW10      29.74R VSB 1   WCI  26
KEOKUK *       CLOUDY    36  36 100 SW13      29.73R FOG     WCI  27
OSKALOOSA *    CLOUDY    33  32  97 W12       29.71S FOG     WCI  24
CENTERVILLE *  CLOUDY    36  36 100 W13       29.74R WCI  27
OTTUMWA        CLOUDY    34  33  96 W13       29.71S WCI  25
6HR MIN TEMP:  29; 6HR MAX TEMP:  34; 6HR PCP: TRACE;

WASHINGTON *   CLOUDY    34  34 100 SW13      29.71R FOG     WCI  25
$$

ABBREVIATIONS USED IN REMARKS
   TC - TEMPERATURES IN CELSIUS
  WCI - WIND CHILL INDEX
   HX - HEAT INDEX
  VSB - VISIBILITY
$$




USA.gov is the U.S. government's official web portal to all federal, state and local government web resources and services.